GW3735 Weather Reports


time (UTC)temp
F
wind
direction
speed
knots
gust
knots
rain 1hr
in
rain 24hr
in
rain mn
in
humidity
%
barometer
mb
20260503013118 65 28 2.6 5.2 0.00 0.00 0.00 33 1016.1
20260503011609 65 339 0.0 2.6 0.00 0.00 0.00 34 1016.2
20260503010111 65 335 1.7 3.5 0.00 0.00 0.00 34 1016.4
20260503004544 65 46 1.7 9.6 0.00 0.00 0.00 32 1016.4
20260503003049 65 240 2.6 6.1 0.00 0.00 0.00 32 1016.8
20260503001555 66 291 2.6 7.8 0.00 0.00 0.00 32 1016.8
20260503000108 67 244 4.3 7.8 0.00 0.00 0.00 31 1016.7
20260502234548 68 325 5.2 8.7 0.00 0.00 0.00 29 1016.9
20260502233051 67 281 3.5 9.6 0.00 0.00 0.00 31 1017.2
20260502231616 68 288 1.7 4.3 0.00 0.00 0.00 30 1017.3
20260502230121 67 227 0.9 7.8 0.00 0.00 0.00 32 1017.5
20260502224625 66 296 5.2 12.2 0.00 0.00 0.00 32 1017.7
20260502223100 67 247 7.8 13.0 0.00 0.00 0.00 32 1017.9
20260502221550 65 255 0.0 3.5 0.00 0.00 0.00 34 1018.1
20260502220051 65 326 5.2 11.3 0.00 0.00 0.00 34 1018.4
20260502214548 65 229 1.7 10.4 0.00 0.00 0.00 34 1018.7
20260502213054 66 5 3.5 9.6 0.00 0.00 0.00 34 1018.8
20260502211555 65 339 4.3 7.8 0.00 0.00 0.00 35 1018.9
20260502210054 65 306 7.8 12.2 0.00 0.00 0.00 34 1019.1
20260502204607 64 346 0.0 10.4 0.00 0.00 0.00 35 1019.2
20260502203054 65 39 6.1 13.0 0.00 0.00 0.00 36 1019.4
20260502201559 64 338 7.0 15.6 0.00 0.00 0.00 35 1019.3
20260502200107 65 350 11.3 13.9 0.00 0.00 0.00 35 1019.4
20260502194557 63 335 6.1 13.9 0.00 0.00 0.00 36 1019.7
20260502193100 63 360 8.7 13.0 0.00 0.00 0.00 37 1019.9
20260502191604 64 40 1.7 16.5 0.00 0.00 0.00 36 1019.9
20260502190110 64 350 8.7 16.5 0.00 0.00 0.00 36 1019.9
20260502184558 63 23 8.7 11.3 0.00 0.00 0.00 38 1020.3
20260502183107 63 78 6.1 13.9 0.00 0.00 0.00 37 1020.3
20260502181609 63 360 7.0 11.3 0.00 0.00 0.00 36 1020.3
20260502180112 63 43 5.2 13.0 0.00 0.00 0.00 38 1020.7
20260502163103 61 49 9.6 14.8 0.00 0.00 0.00 40 1020.8
20260502161811 60 53 7.8 17.4 0.00 0.00 0.00 41 1020.7
20260502151548 57 86 8.7 11.3 0.00 0.00 0.00 43 1020.4
20260502150104 57 79 9.6 13.0 0.00 0.00 0.00 43 1020.2
20260502140112 53 44 7.8 13.0 0.00 0.00 0.00 50 1020.0
20260502123045 46 360 9.6 13.9 0.00 0.00 0.00 57 1019.1
20260502121541 47 360 10.4 13.0 0.00 0.00 0.00 55 1018.7
20260502114546 47 360 9.6 12.2 0.00 0.00 0.00 53 1018.3
20260502113042 47 360 9.6 12.2 0.00 0.00 0.00 52 1018.3
20260502111555 48 360 7.8 11.3 0.00 0.00 0.00 50 1017.9
20260502110052 49 41 7.0 11.3 0.00 0.00 0.00 48 1017.6
20260502104540 48 28 6.1 9.6 0.00 0.00 0.00 48 1017.4
20260502103044 48 14 6.1 9.6 0.00 0.00 0.00 46 1017.4
20260502101548 49 28 7.8 12.2 0.00 0.00 0.00 44 1017.2
20260502090107 54 329 5.2 9.6 0.00 0.00 0.00 34 1016.1
20260502070055 56 333 5.2 10.4 0.00 0.00 0.00 31 1015.9
20260502064558 57 338 9.6 12.2 0.00 0.00 0.00 31 1015.7
20260502063120 59 350 11.3 14.8 0.00 0.00 0.00 29 1015.7
20260502061555 59 345 12.2 14.8 0.00 0.00 0.00 29 1015.7
20260502060058 60 335 11.3 14.8 0.00 0.00 0.00 26 1015.6
20260502054606 60 334 13.0 16.5 0.00 0.00 0.00 26 1015.4
20260502053103 59 334 13.0 15.6 0.00 0.00 0.00 26 1015.5
20260502051540 60 332 13.0 15.6 0.00 0.00 0.00 26 1015.5
20260502050050 60 331 10.4 13.0 0.00 0.00 0.00 25 1015.4
20260502044539 59 321 9.6 12.2 0.00 0.00 0.00 24 1015.6
20260502043047 61 326 7.8 11.3 0.00 0.00 0.00 22 1015.6
20260502041549 62 331 9.6 12.2 0.00 0.00 0.00 21 1015.6
20260502040045 62 321 7.8 9.6 0.00 0.00 0.00 21 1015.6
20260502034558 62 318 7.8 9.6 0.00 0.00 0.00 21 1015.4
20260502033051 60 317 3.5 5.2 0.00 0.00 0.00 22 1015.4
20260502032037 61 321 4.3 5.2 0.00 0.00 0.00 22 1015.3
20260502030057 61 327 4.3 8.7 0.00 0.00 0.00 22 1015.1
20260502024607 63 309 3.5 4.3 0.00 0.00 0.00 21 1014.9
20260502023053 64 298 2.6 4.3 0.00 0.00 0.00 21 1014.9
20260502021538 65 266 2.6 3.5 0.00 0.00 0.00 20 1014.8
20260502020044 66 245 2.6 4.3 0.00 0.00 0.00 19 1015.0
20260502014553 69 238 3.5 7.8 0.00 0.00 0.00 18 1014.9